This is the latest recevied weather packets stored in our database for station/object K9RCP-20. If no packets are shown the sender has not sent any weather packets the latest 10 day(s).
| Time | Temp. | Humidity | Pressure | Rain* | Wind** | Luminosity | Snow |
|---|---|---|---|---|---|---|---|
| 1778345206 | 17.78° C | 64% | 1017.6 hPa | 0 mm | - | 426 W/m² | - |
| 1778344902 | 17.78° C | 64% | 1017.2 hPa | 0 mm | - | 393 W/m² | - |
| 1778344600 | 17.78° C | 63% | 1017.5 hPa | 0 mm | - | 389 W/m² | - |
| 1778344295 | 17.78° C | 63% | 1017.6 hPa | 0 mm | - | 438 W/m² | - |
| 1778343993 | 17.78° C | 65% | 1017.8 hPa | 0 mm | - | 427 W/m² | - |
| 1778343688 | 16.67° C | 67% | 1017.6 hPa | 0 mm | - | 383 W/m² | - |
| 1778343385 | 16.67° C | 68% | 1017.7 hPa | 0 mm | - | 352 W/m² | - |
| 1778343080 | 16.67° C | 70% | 1018 hPa | 0 mm | - | 331 W/m² | - |
| 1778342776 | 16.11° C | 70% | 1017.9 hPa | 0 mm | - | 307 W/m² | - |
| 1778342471 | 15.56° C | 73% | 1017.9 hPa | 0 mm | - | 287 W/m² | - |
| 1778342168 | 15.56° C | 75% | 1018 hPa | 0 mm | - | 246 W/m² | - |
| 1778341864 | 15° C | 75% | 1018.1 hPa | 0 mm | - | 237 W/m² | - |
| 1778341560 | 15° C | 75% | 1018 hPa | 0 mm | - | 241 W/m² | - |
| 1778341258 | 15° C | 77% | 1018.1 hPa | 0 mm | - | 262 W/m² | - |
| 1778340955 | 15.56° C | 76% | 1018 hPa | 0 mm | - | 278 W/m² | - |
| 1778340652 | 15.56° C | 74% | 1018.2 hPa | 0 mm | - | 271 W/m² | - |
| 1778340347 | 15° C | 77% | 1018.2 hPa | 0 mm | - | 232 W/m² | - |
| 1778340045 | 15° C | 75% | 1018.2 hPa | 0 mm | - | 205 W/m² | - |
| 1778339741 | 15° C | 76% | 1018.2 hPa | 0 mm | - | 197 W/m² | - |
| 1778339439 | 14.44° C | 78% | 1018.2 hPa | 0 mm | - | 193 W/m² | - |
| 1778339136 | 13.89° C | 79% | 1018.2 hPa | 0 mm | - | 181 W/m² | - |
| 1778338835 | 13.89° C | 81% | 1018.2 hPa | 0 mm | - | 175 W/m² | - |
| 1778338530 | 12.78° C | 83% | 1018.5 hPa | 0 mm | - | 180 W/m² | - |
| 1778338225 | 12.78° C | 82% | 1018.4 hPa | 0 mm | - | 165 W/m² | - |
| 1778337922 | 12.78° C | 84% | 1018.6 hPa | 0 mm | - | 140 W/m² | - |
* Rain latest hour (hover to see other rain measurements)
** Current wind speed in m/s (hover to see current wind gust speed)